TimeCET,TemperatureF,Dew PointF,Humidity,Sea Level PressureIn,VisibilityMPH,Wind Direction,Wind SpeedMPH,Gust SpeedMPH,PrecipitationIn,Events,Conditions,WindDirDegrees,DateUTC
1:00 AM,38,34,81,30.08,,NNE,2.2,,,,,30,2013-02-15 00:00:00
5:15 AM,33.8,32.0,93,30.04,5.0,ENE,3.5,-,N/A,,Mostly Cloudy,70,2013-02-15 04:15:00
5:45 AM,32.0,32.0,100,30.04,5.0,Calm,Calm,-,N/A,,Mostly Cloudy,0,2013-02-15 04:45:00
6:00 AM,-9999,-9999,N/A,-9999,1.9,NE,5.8,-,N/A,,Mostly Cloudy,40,2013-02-15 05:00:00
6:15 AM,32.0,32.0,100,30.04,3.7,NNE,2.3,-,N/A,,Mostly Cloudy,20,2013-02-15 05:15:00
6:45 AM,32.0,32.0,100,30.04,3.7,NE,2.3,-,N/A,,Mostly Cloudy,40,2013-02-15 05:45:00
7:00 AM,32,31,96,30.05,4,NE,2.2,,,,Partly Cloudy,40,2013-02-15 06:00:00
7:15 AM,32.0,32.0,100,30.04,3.7,Calm,Calm,-,N/A,,Mostly Cloudy,0,2013-02-15 06:15:00
7:45 AM,32.0,32.0,100,30.04,3.7,NNW,1.2,-,N/A,,Mostly Cloudy,340,2013-02-15 06:45:00
8:14 AM,33.8,33.8,100,30.06,-9999.0,North,1.2,-,N/A,,Mostly Cloudy,360,2013-02-15 07:14:00
8:15 AM,33.8,33.8,100,30.04,-9999.0,North,1.2,-,N/A,,Mostly Cloudy,350,2013-02-15 07:15:00
8:45 AM,35.6,35.6,100,30.04,-9999.0,NE,2.3,-,N/A,,Mostly Cloudy,40,2013-02-15 07:45:00
9:00 AM,-9999,-9999,N/A,-9999,2.5,North,4.6,-,N/A,,Mist,10,2013-02-15 08:00:00
9:15 AM,37.4,35.6,93,30.04,3.1,ENE,3.5,-,N/A,,Mostly Cloudy,70,2013-02-15 08:15:00
9:43 AM,39.2,35.6,87,30.06,3.7,Calm,Calm,-,N/A,,Mostly Cloudy,0,2013-02-15 08:43:00
9:45 AM,39.2,35.6,87,30.04,3.7,Calm,Calm,-,N/A,,Mostly Cloudy,0,2013-02-15 08:45:00
10:15 AM,41.0,35.6,81,30.04,3.7,NE,3.5,-,N/A,,Mostly Cloudy,40,2013-02-15 09:15:00
10:45 AM,42.8,35.6,76,30.06,4.3,ENE,3.5,-,N/A,,Mostly Cloudy,60,2013-02-15 09:45:00
11:15 AM,44.6,37.4,76,30.06,4.3,NE,1.2,-,N/A,,Mostly Cloudy,40,2013-02-15 10:15:00
11:45 AM,44.6,37.4,76,30.04,5.0,West,2.3,-,N/A,,Mostly Cloudy,260,2013-02-15 10:45:00
12:00 PM,-9999,-9999,N/A,-9999,1.9,NE,4.6,-,N/A,,Mist,40,2013-02-15 11:00:00
12:15 PM,46.4,37.4,71,30.04,5.0,WSW,3.5,-,N/A,,Mostly Cloudy,250,2013-02-15 11:15:00
12:45 PM,46.4,39.2,76,30.04,5.0,WSW,4.6,-,N/A,,Mostly Cloudy,250,2013-02-15 11:45:00
1:00 PM,46,39,67,30.05,5,WSW,4.5,,,,Partly Cloudy,250,2013-02-15 12:00:00
1:15 PM,46.4,39.2,76,30.04,5.0,West,4.6,-,N/A,,Mostly Cloudy,280,2013-02-15 12:15:00
1:45 PM,46.4,39.2,76,30.04,5.0,WNW,4.6,-,N/A,,Mostly Cloudy,300,2013-02-15 12:45:00
2:15 PM,46.4,39.2,76,30.04,5.0,West,4.6,-,N/A,,Mostly Cloudy,280,2013-02-15 13:15:00
2:45 PM,46.4,39.2,76,30.04,5.0,West,6.9,-,N/A,,Mostly Cloudy,280,2013-02-15 13:45:00
3:15 PM,46.4,39.2,76,30.04,5.0,WNW,5.8,-,N/A,,Mostly Cloudy,300,2013-02-15 14:15:00
3:45 PM,46.4,39.2,76,30.04,6.2,WNW,5.8,-,N/A,,Mostly Cloudy,290,2013-02-15 14:45:00
4:15 PM,46.4,41.0,81,30.04,6.2,WNW,6.9,-,N/A,,Mostly Cloudy,300,2013-02-15 15:15:00
4:45 PM,44.6,39.2,81,30.04,-9999.0,NW,3.5,-,N/A,,Clear,310,2013-02-15 15:45:00
5:00 PM,-9999,-9999,N/A,-9999,-9999.0,North,-9999.0,-,N/A,,Unknown,0,2013-02-15 16:00:00
7:00 PM,43,38,78,30.07,,NNW,4.5,,,,,330,2013-02-15 18:00:00